Regional Weather Roundup
Issued by NWS

Home | Current Version | Previous Version | Graphics & Text | Print | Product List | Glossary On
Versions: 1 2 3 4 5 6 7 8 9 10 11 12 13 14 15 16 17 18 19 20 21 22 23 24 25 26 27 28 29 30 31 32 33 34 35 36 37 38 39 40 41 42 43 44 45 46 47 48 49 50
723
ASUS43 KOAX 280602
RWRNE

WEATHER ROUNDUP FOR NEBRASKA
NATIONAL WEATHER SERVICE OMAHA NE
100 AM CDT FRI JUL 28 2017

NOTES: SATELLITE DATA IS BEING USED TO AUGMENT CLOUD COVER ABOVE
       12000 FEET.
       "FAIR" INDICATES FEW OR NO CLOUDS BELOW 12,000 FEET WITH NO
       SIGNIFICANT WEATHER AND/OR OBSTRUCTIONS TO VISIBILITY.


NEZ001>004-019>022-054>056-280700-
NEBRASKA PANHANDLE

CITY           SKY/WX    TMP DP  RH WIND       PRES   REMARKS
SCOTTSBLUFF    CLOUDY    64  62  93 NE10      30.10F
6HR MIN TEMP:  63; 6HR MAX TEMP:  78; 6HR PCP:  0.43;

ALLIANCE       TSTM      63  62  97 MISG      30.09  FOG
6HR MIN TEMP:  63; 6HR MAX TEMP:  86;

CHADRON        CLOUDY    64  59  83 SE10      30.02F
6HR MIN TEMP:  62; 6HR MAX TEMP:  79;

GORDON         LGT RAIN  63  60  87 NW7       30.09R
6HR MIN TEMP:  63; 6HR MAX TEMP:  78; 6HR PCP:  0.04;

KIMBALL        CLOUDY    66  64  91 SE21      30.12F
SIDNEY         CLOUDY    63  58  83 SE18G28   30.12R
6HR MIN TEMP:  63; 6HR MAX TEMP:  85; 6HR PCP: TRACE;

$$

NEZ057>060-069>072-079>082-280700-
SOUTHWEST NEBRASKA

CITY           SKY/WX    TMP DP  RH WIND       PRES   REMARKS
NORTH PLATTE   CLOUDY    70  60  70 SE5       30.07R
6HR MIN TEMP:  66; 6HR MAX TEMP:  86;

IMPERIAL       LGT RAIN  71  59  65 NW14      30.15R
6HR MIN TEMP:  71; 6HR MAX TEMP:  82; 6HR PCP: TRACE;

LEXINGTON      CLOUDY    69  64  84 SE6       30.08F
MCCOOK         CLOUDY    68  61  78 E6        30.08R
6HR MIN TEMP:  67; 6HR MAX TEMP:  86;

OGALLALA       LGT RAIN  67  64  90 SE24G32   30.01F
$$

NEZ005>010-023>029-035>040-094-280700-
NORTH CENTRAL NEBRASKA

CITY           SKY/WX    TMP DP  RH WIND       PRES   REMARKS
VALENTINE      CLOUDY    73  58  59 SE6       30.09R
6HR MIN TEMP:  72; 6HR MAX TEMP:  81;

AINSWORTH      CLOUDY    69  62  77 SE9       30.08S
BROKEN BOW     CLOUDY    66  62  87 E5        30.09S
6HR MIN TEMP:  66; 6HR MAX TEMP:  81;

O`NEILL        MOCLDY    70  64  80 SE5       30.08F
ORD            CLOUDY    67  63  87 CALM      30.07R
6HR MIN TEMP:  65; 6HR MAX TEMP:  81;

THEDFORD       MOCLDY    69  61  76 SE8       30.10R
$$

NEZ041-046>049-061>064-073>077-083>087-280700-
SOUTH CENTRAL NEBRASKA

CITY           SKY/WX    TMP DP  RH WIND       PRES   REMARKS
GRAND ISLAND   CLOUDY    66  66 100 CALM      30.06F
6HR MIN TEMP:  66; 6HR MAX TEMP:  80;

AURORA         CLEAR     64  63  98 E3        30.05F
HASTINGS       CLEAR     66  63  90 NE3       30.07F
6HR MIN TEMP:  66; 6HR MAX TEMP:  79;

HEBRON         CLEAR     66  64  94 CALM      30.03F
HOLDREGE       CLOUDY    65  62  90 SE6       30.07S
KEARNEY        PTCLDY    66  63  90 SE3       30.08S
YORK           PTCLDY    64  64 100 CALM      30.05F
$$

NEZ011>018-030>034-042>045-280700-
NORTHEAST NEBRASKA

CITY           SKY/WX    TMP DP  RH WIND       PRES   REMARKS
NORFOLK        PTCLDY    66  61  84 CALM      30.06S
6HR MIN TEMP:  64; 6HR MAX TEMP:  80;

ALBION         CLOUDY    67  65  94 CALM      30.07R
BLAIR          CLOUDY    70  65  83 NE6       30.03F
COLUMBUS       CLOUDY    66  65  96 CALM      30.05S
FREMONT        MOCLDY    69  66  89 CALM      30.04S
TEKAMAH        CLOUDY    67  64  90 N6        30.03R
6HR MIN TEMP:  67; 6HR MAX TEMP:  83;

WAYNE          CLOUDY    64  64  99 CALM      30.06R
$$

NEZ050>053-065>068-078-088>093-280700-
SOUTHEAST NEBRASKA

CITY           SKY/WX    TMP DP  RH WIND       PRES   REMARKS
LINCOLN        CLEAR     67  64  90 N3        30.03S
6HR MIN TEMP:  67; 6HR MAX TEMP:  82;

OMAHA EPPLEY   CLOUDY    67  64  90 NW6       30.02R
6HR MIN TEMP:  67; 6HR MAX TEMP:  85;

BEATRICE       CLEAR     65  64  94 CALM      30.02S
FALLS CITY     PTCLDY    71  64  78 N5        29.99S
6HR MIN TEMP:  70; 6HR MAX TEMP:  82;

NEBRASKA CITY  CLEAR     68  68 100 N6        30.02S
PLATTSMOUTH    PTCLDY    70  63  79 NE3       30.03S
$$

NEZ044-045-051>053-067-280700-
OMAHA AREA

CITY           SKY/WX    TMP DP  RH WIND       PRES   REMARKS
OMAHA EPPLEY   CLOUDY    67  64  90 NW6       30.02R
6HR MIN TEMP:  67; 6HR MAX TEMP:  85;

BLAIR          CLOUDY    70  65  83 NE6       30.03F
FREMONT        MOCLDY    69  66  89 CALM      30.04S
MILLARD        MOCLDY    71  67  86 CALM      30.02F
OFFUTT AFB     PTCLDY    70  64  80 NE5       30.01S
PLATTSMOUTH    PTCLDY    70  63  79 NE3       30.03S
WAHOO          FAIR      66  65  95 N5        30.04S
$$




USA.gov is the U.S. government's official web portal to all federal, state and local government web resources and services.